Грузско-Зорянское

Украина / Донецкая область     47°56′33″N   38°05′19″E
темп.,
°C
ветер,
м/с
пор.,
м/с
влажн.,
%
обл.,
%
осадки,
мм/ч
давл.,
гПа
погр.,
м
16 мая, вс
вс1600:00+18зсз23630 0.0 101362
03:00+16ссв24670 0.0 101384
06:00+17ссв25684 0.0 1012118
09:00+23всв35517 0.0 1011556
12:00+27всв454243 0.0 10101539
15:00+29всв5644100 0.0 10082052
18:00+24в51054100 0.6 1007710
21:00+21всв412555 0.6 1006414
17 мая, пн
пн1700:00+20в5165083 0.0 1005527
03:00+18вюв6155093 0.0 1005423
06:00+16вюв514535 0.0 1005412
09:00+20юв6105412 0.0 1005614
12:00+23ю6855100 0.0 1006870
15:00+24ююв5651100 0.0 10061077
18:00+21ю5865100 0.0 1007601
21:00+17ю3782100 0.0 1008312
18 мая, вт
вт1800:00+16ю3590100 0.0 1009206
03:00+15юз3591100 0.0 1008183
06:00+15зюз2390100 0.7 1008129
09:00+16ю1190100 2.7 1008246
12:00+20ююв346945 0.1 10081017
15:00+20ююз576996 1.9 10081161
18:00+20ююз676027 0.1 10081289
21:00+15ю4107899 0.1 1009535
19 мая, ср
ср1900:00+13ююв4991100 0.0 1008362
03:00+13ю389567 0.0 1009393
06:00+14ююв4790100 0.0 1009450
09:00+17ю6962100 0.1 10081277
12:00+18ююз9115799 0.6 10091661
15:00+16ююз7117340 1.3 10091202
18:00+15юз71175100 0.7 10091161
21:00+13юз61281100 0.9 1011868
20 мая, чт
чт2000:00+12юз6138651 0.1 1012882
03:00+13зюз71476100 0.1 10131058
06:00+12зюз512810 0.0 1014617
09:00+17зюз585854 0.0 1015946
12:00+21зюз573990 0.0 10161533
15:00+23зюз343984 0.0 10151961
18:00+22юв22414 0.0 10151522
21:00+17ююв3872100 0.0 1016263